weather.gov     
National Weather Service

Regional Weather Roundup
NWS Homepage
This page is being discontinued on March 12, 2014.
The same data is available at this site. Please update your bookmarks.
Thank you, and we apologize for the inconvenience.
Please send an email to SR-SRH.Webmaster@noaa.gov with any concerns.


Current Version
Previous Version:    01  02  03  04  05  06  07  08  09  10  11  12  13  14  15  16  17  18  19  20  21  22  23  24  25  26  27  28  29  30  
   31  32  33  34  35  36  37  38  39  40  41  42  43  44  45  46  47  48  49  50  51  52  53  
[Printable]
643
ASCA42 TJSJ 191211
RWRPR
PUERTO RICO/U.S. VIRGIN ISLANDS HOURLY WEATHER ROUNDUP
NATIONAL WEATHER SERVICE SAN JUAN PR
800 AM AST FRI DEC 19 2014

PRZ001-004-191300-
PUERTO RICO

CITY           SKY/WX    TMP DP  RH WIND       PRES   REMARKS
SAN JUAN LMM   MOSUNNY   75  70  83 CALM      29.99R
PONCE          MOSUNNY   72  61  68 NE6       29.96
AGUADILLA      CLOUDY    73  68  83 E9        30.00R
CEIBA          MOSUNNY   79  66  65 NE9       30.01R
$$

PRZ006-007-191300-
U.S. VIRGIN ISLANDS

CITY           SKY/WX    TMP DP  RH WIND       PRES   REMARKS
$$

HOURLY WEATHER ROUNDUP FOR THE NEWS MEDIA

CITY           SKY/WX    TMP DP  RH WIND       PRES   REMARKS
MIAMI          PTCLDY    63  52  67 VRB3      30.09R
ORLANDO        MOCLDY    53  49  86 NW3       30.12R
NEW YORK       CLOUDY    38  22  52 NW12      30.01R WCI  30
NEWARK         CLOUDY    37  23  56 NW17G23   30.01R WCI  27
CHICAGO        CLOUDY    28  22  78 N6        30.27R WCI  22
HARTFORD       CLEAR     30  26  85 CALM      29.91R
BOSTON         MOCLDY    34  24  67 W10       29.91R WCI  26
DALLAS         LGT RAIN  46  43  89 NE5       30.17F FOG
PHILADELPHIA   CLOUDY    37  25  61 W10       30.07R WCI  30




U.S. Dept. of Commerce
NOAA National Weather Service
1325 East West Highway
Silver Spring, MD 20910
E-mail: w-nws.webmaster@noaa.gov
Page last modified: May 16, 2007
NATIONAL WEATHER SERVICE: for Safety, for Work, for Fun - FOR LIFE